﻿測定場所 (Monitoring sites),日付 (Measurement date),時間 (Measurement time),線量率 最大値 (max) μGy/h,線量率 最小値 (min) μGy/h,線量率 平均値 (average) μGy/h,
江戸川 (Edogawa),2017-11-05,23:01～24:00,0.0524,0.0461,0.0490,
江戸川 (Edogawa),2017-11-05,22:01～23:00,0.0523,0.0455,0.0492,
江戸川 (Edogawa),2017-11-05,21:01～22:00,0.0530,0.0462,0.0493,
江戸川 (Edogawa),2017-11-05,20:01～21:00,0.0524,0.0448,0.0488,
江戸川 (Edogawa),2017-11-05,19:01～20:00,0.0524,0.0459,0.0489,
江戸川 (Edogawa),2017-11-05,18:01～19:00,0.0528,0.0464,0.0494,
江戸川 (Edogawa),2017-11-05,17:01～18:00,0.0529,0.0466,0.0495,
江戸川 (Edogawa),2017-11-05,16:01～17:00,0.0519,0.0468,0.0493,
江戸川 (Edogawa),2017-11-05,15:01～16:00,0.0532,0.0460,0.0494,
江戸川 (Edogawa),2017-11-05,14:01～15:00,0.0532,0.0470,0.0496,
江戸川 (Edogawa),2017-11-05,13:01～14:00,0.0541,0.0454,0.0499,
江戸川 (Edogawa),2017-11-05,12:01～13:00,0.0523,0.0463,0.0495,
江戸川 (Edogawa),2017-11-05,11:01～12:00,0.0525,0.0472,0.0497,
江戸川 (Edogawa),2017-11-05,10:01～11:00,0.0523,0.0464,0.0495,
江戸川 (Edogawa),2017-11-05,09:01～10:00,0.0526,0.0449,0.0493,
江戸川 (Edogawa),2017-11-05,08:01～09:00,0.0516,0.0457,0.0490,
江戸川 (Edogawa),2017-11-05,07:01～08:00,0.0518,0.0456,0.0492,
江戸川 (Edogawa),2017-11-05,06:01～07:00,0.0523,0.0468,0.0490,
江戸川 (Edogawa),2017-11-05,05:01～06:00,0.0512,0.0458,0.0490,
江戸川 (Edogawa),2017-11-05,04:01～05:00,0.0531,0.0459,0.0489,
江戸川 (Edogawa),2017-11-05,03:01～04:00,0.0540,0.0455,0.0490,
江戸川 (Edogawa),2017-11-05,02:01～03:00,0.0520,0.0453,0.0490,
江戸川 (Edogawa),2017-11-05,01:01～02:00,0.0520,0.0471,0.0494,
江戸川 (Edogawa),2017-11-05,00:01～01:00,0.0519,0.0461,0.0494,
江戸川 (Edogawa),2017-11-04,23:01～24:00,0.0525,0.0465,0.0496,
江戸川 (Edogawa),2017-11-04,22:01～23:00,0.0537,0.0474,0.0507,
江戸川 (Edogawa),2017-11-04,21:01～22:00,0.0590,0.0509,0.0544,
江戸川 (Edogawa),2017-11-04,20:01～21:00,0.0660,0.0554,0.0607,
江戸川 (Edogawa),2017-11-04,19:01～20:00,0.0659,0.0521,0.0583,
江戸川 (Edogawa),2017-11-04,18:01～19:00,0.0558,0.0464,0.0514,
江戸川 (Edogawa),2017-11-04,17:01～18:00,0.0526,0.0468,0.0501,
江戸川 (Edogawa),2017-11-04,16:01～17:00,0.0525,0.0472,0.0503,
江戸川 (Edogawa),2017-11-04,15:01～16:00,0.0529,0.0463,0.0500,
江戸川 (Edogawa),2017-11-04,14:01～15:00,0.0531,0.0467,0.0498,
江戸川 (Edogawa),2017-11-04,13:01～14:00,0.0543,0.0472,0.0502,
江戸川 (Edogawa),2017-11-04,12:01～13:00,0.0530,0.0460,0.0499,
江戸川 (Edogawa),2017-11-04,11:01～12:00,0.0536,0.0471,0.0504,
江戸川 (Edogawa),2017-11-04,10:01～11:00,0.0554,0.0464,0.0503,
江戸川 (Edogawa),2017-11-04,09:01～10:00,0.0537,0.0466,0.0498,
江戸川 (Edogawa),2017-11-04,08:01～09:00,0.0527,0.0471,0.0495,
江戸川 (Edogawa),2017-11-04,07:01～08:00,0.0531,0.0461,0.0496,
江戸川 (Edogawa),2017-11-04,06:01～07:00,0.0521,0.0456,0.0491,
江戸川 (Edogawa),2017-11-04,05:01～06:00,0.0525,0.0468,0.0496,
江戸川 (Edogawa),2017-11-04,04:01～05:00,0.0529,0.0468,0.0497,
江戸川 (Edogawa),2017-11-04,03:01～04:00,0.0533,0.0460,0.0500,
江戸川 (Edogawa),2017-11-04,02:01～03:00,0.0527,0.0460,0.0496,
江戸川 (Edogawa),2017-11-04,01:01～02:00,0.0538,0.0463,0.0496,
江戸川 (Edogawa),2017-11-04,00:01～01:00,0.0530,0.0461,0.0496,
江戸川 (Edogawa),2017-11-03,23:01～24:00,0.0529,0.0460,0.0494,
江戸川 (Edogawa),2017-11-03,22:01～23:00,0.0525,0.0462,0.0494,
江戸川 (Edogawa),2017-11-03,21:01～22:00,0.0521,0.0463,0.0494,
江戸川 (Edogawa),2017-11-03,20:01～21:00,0.0521,0.0463,0.0491,
江戸川 (Edogawa),2017-11-03,19:01～20:00,0.0522,0.0459,0.0490,
江戸川 (Edogawa),2017-11-03,18:01～19:00,0.0548,0.0465,0.0497,
江戸川 (Edogawa),2017-11-03,17:01～18:00,0.0526,0.0470,0.0493,
江戸川 (Edogawa),2017-11-03,16:01～17:00,0.0522,0.0460,0.0495,
江戸川 (Edogawa),2017-11-03,15:01～16:00,0.0517,0.0465,0.0493,
江戸川 (Edogawa),2017-11-03,14:01～15:00,0.0530,0.0463,0.0494,
江戸川 (Edogawa),2017-11-03,13:01～14:00,0.0534,0.0459,0.0496,
江戸川 (Edogawa),2017-11-03,12:01～13:00,0.0527,0.0450,0.0492,
江戸川 (Edogawa),2017-11-03,11:01～12:00,0.0537,0.0455,0.0493,
江戸川 (Edogawa),2017-11-03,10:01～11:00,0.0520,0.0445,0.0494,
江戸川 (Edogawa),2017-11-03,09:01～10:00,0.0539,0.0473,0.0498,
江戸川 (Edogawa),2017-11-03,08:01～09:00,0.0533,0.0469,0.0493,
江戸川 (Edogawa),2017-11-03,07:01～08:00,0.0535,0.0454,0.0496,
江戸川 (Edogawa),2017-11-03,06:01～07:00,0.0542,0.0469,0.0503,
江戸川 (Edogawa),2017-11-03,05:01～06:00,0.0567,0.0494,0.0526,
江戸川 (Edogawa),2017-11-03,04:01～05:00,0.0574,0.0503,0.0536,
江戸川 (Edogawa),2017-11-03,03:01～04:00,0.0571,0.0507,0.0537,
江戸川 (Edogawa),2017-11-03,02:01～03:00,0.0586,0.0521,0.0556,
江戸川 (Edogawa),2017-11-03,01:01～02:00,0.0601,0.0516,0.0560,
江戸川 (Edogawa),2017-11-03,00:01～01:00,0.0582,0.0503,0.0539,
江戸川 (Edogawa),2017-11-02,23:01～24:00,0.0532,0.0460,0.0497,
江戸川 (Edogawa),2017-11-02,22:01～23:00,0.0534,0.0469,0.0504,
江戸川 (Edogawa),2017-11-02,21:01～22:00,0.0533,0.0476,0.0504,
江戸川 (Edogawa),2017-11-02,20:01～21:00,0.0528,0.0464,0.0501,
江戸川 (Edogawa),2017-11-02,19:01～20:00,0.0530,0.0472,0.0499,
江戸川 (Edogawa),2017-11-02,18:01～19:00,0.0547,0.0459,0.0497,
江戸川 (Edogawa),2017-11-02,17:01～18:00,0.0536,0.0471,0.0494,
江戸川 (Edogawa),2017-11-02,16:01～17:00,0.0526,0.0471,0.0498,
江戸川 (Edogawa),2017-11-02,15:01～16:00,0.0528,0.0466,0.0503,
江戸川 (Edogawa),2017-11-02,14:01～15:00,0.0532,0.0466,0.0499,
江戸川 (Edogawa),2017-11-02,13:01～14:00,0.0538,0.0475,0.0503,
江戸川 (Edogawa),2017-11-02,12:01～13:00,0.0541,0.0473,0.0504,
江戸川 (Edogawa),2017-11-02,11:01～12:00,0.0542,0.0475,0.0507,
江戸川 (Edogawa),2017-11-02,10:01～11:00,0.0545,0.0461,0.0509,
江戸川 (Edogawa),2017-11-02,09:01～10:00,0.0539,0.0475,0.0504,
江戸川 (Edogawa),2017-11-02,08:01～09:00,0.0537,0.0471,0.0505,
江戸川 (Edogawa),2017-11-02,07:01～08:00,0.0531,0.0470,0.0503,
江戸川 (Edogawa),2017-11-02,06:01～07:00,0.0539,0.0457,0.0503,
江戸川 (Edogawa),2017-11-02,05:01～06:00,0.0529,0.0465,0.0499,
江戸川 (Edogawa),2017-11-02,04:01～05:00,0.0549,0.0466,0.0498,
江戸川 (Edogawa),2017-11-02,03:01～04:00,0.0535,0.0467,0.0504,
江戸川 (Edogawa),2017-11-02,02:01～03:00,0.0523,0.0472,0.0499,
江戸川 (Edogawa),2017-11-02,01:01～02:00,0.0534,0.0477,0.0501,
江戸川 (Edogawa),2017-11-02,00:01～01:00,0.0535,0.0474,0.0502,
江戸川 (Edogawa),2017-11-01,23:01～24:00,0.0535,0.0457,0.0499,
江戸川 (Edogawa),2017-11-01,22:01～23:00,0.0533,0.0468,0.0498,
江戸川 (Edogawa),2017-11-01,21:01～22:00,0.0534,0.0445,0.0498,
江戸川 (Edogawa),2017-11-01,20:01～21:00,0.0540,0.0473,0.0501,
江戸川 (Edogawa),2017-11-01,19:01～20:00,0.0541,0.0472,0.0500,
江戸川 (Edogawa),2017-11-01,18:01～19:00,0.0543,0.0473,0.0505,
江戸川 (Edogawa),2017-11-01,17:01～18:00,0.0530,0.0474,0.0501,
江戸川 (Edogawa),2017-11-01,16:01～17:00,0.0536,0.0453,0.0504,
江戸川 (Edogawa),2017-11-01,15:01～16:00,0.0532,0.0472,0.0504,
江戸川 (Edogawa),2017-11-01,14:01～15:00,0.0531,0.0474,0.0499,
江戸川 (Edogawa),2017-11-01,13:01～14:00,0.0533,0.0467,0.0501,
江戸川 (Edogawa),2017-11-01,12:01～13:00,0.0534,0.0470,0.0502,
江戸川 (Edogawa),2017-11-01,11:01～12:00,0.0551,0.0475,0.0506,
江戸川 (Edogawa),2017-11-01,10:01～11:00,0.0535,0.0461,0.0508,
江戸川 (Edogawa),2017-11-01,09:01～10:00,0.0530,0.0464,0.0502,
江戸川 (Edogawa),2017-11-01,08:01～09:00,0.0528,0.0473,0.0499,
江戸川 (Edogawa),2017-11-01,07:01～08:00,0.0536,0.0468,0.0500,
江戸川 (Edogawa),2017-11-01,06:01～07:00,0.0543,0.0466,0.0500,
江戸川 (Edogawa),2017-11-01,05:01～06:00,0.0531,0.0465,0.0498,
江戸川 (Edogawa),2017-11-01,04:01～05:00,0.0525,0.0470,0.0496,
江戸川 (Edogawa),2017-11-01,03:01～04:00,0.0522,0.0465,0.0496,
江戸川 (Edogawa),2017-11-01,02:01～03:00,0.0541,0.0467,0.0499,
江戸川 (Edogawa),2017-11-01,01:01～02:00,0.0526,0.0458,0.0494,
江戸川 (Edogawa),2017-11-01,00:01～01:00,0.0536,0.0443,0.0494,
江戸川 (Edogawa),2017-10-31,23:01～24:00,0.0530,0.0468,0.0495,
江戸川 (Edogawa),2017-10-31,22:01～23:00,0.0527,0.0446,0.0490,
江戸川 (Edogawa),2017-10-31,21:01～22:00,0.0513,0.0457,0.0488,
江戸川 (Edogawa),2017-10-31,20:01～21:00,0.0525,0.0452,0.0484,
江戸川 (Edogawa),2017-10-31,19:01～20:00,0.0519,0.0458,0.0490,
江戸川 (Edogawa),2017-10-31,18:01～19:00,0.0522,0.0464,0.0493,
江戸川 (Edogawa),2017-10-31,17:01～18:00,0.0519,0.0458,0.0489,
江戸川 (Edogawa),2017-10-31,16:01～17:00,0.0523,0.0467,0.0494,
江戸川 (Edogawa),2017-10-31,15:01～16:00,0.0524,0.0465,0.0492,
江戸川 (Edogawa),2017-10-31,14:01～15:00,0.0525,0.0452,0.0494,
江戸川 (Edogawa),2017-10-31,13:01～14:00,0.0526,0.0470,0.0496,
江戸川 (Edogawa),2017-10-31,12:01～13:00,0.0523,0.0465,0.0494,
江戸川 (Edogawa),2017-10-31,11:01～12:00,0.0541,0.0456,0.0496,
江戸川 (Edogawa),2017-10-31,10:01～11:00,0.0523,0.0464,0.0492,
江戸川 (Edogawa),2017-10-31,09:01～10:00,0.0520,0.0454,0.0495,
江戸川 (Edogawa),2017-10-31,08:01～09:00,0.0527,0.0467,0.0492,
江戸川 (Edogawa),2017-10-31,07:01～08:00,0.0519,0.0463,0.0490,
江戸川 (Edogawa),2017-10-31,06:01～07:00,0.0511,0.0452,0.0485,
江戸川 (Edogawa),2017-10-31,05:01～06:00,0.0514,0.0457,0.0484,
江戸川 (Edogawa),2017-10-31,04:01～05:00,0.0514,0.0435,0.0486,
江戸川 (Edogawa),2017-10-31,03:01～04:00,0.0516,0.0450,0.0485,
江戸川 (Edogawa),2017-10-31,02:01～03:00,0.0510,0.0465,0.0484,
江戸川 (Edogawa),2017-10-31,01:01～02:00,0.0517,0.0458,0.0488,
江戸川 (Edogawa),2017-10-31,00:01～01:00,0.0518,0.0450,0.0487,
江戸川 (Edogawa),2017-10-30,23:01～24:00,0.0529,0.0451,0.0486,
江戸川 (Edogawa),2017-10-30,22:01～23:00,0.0512,0.0455,0.0486,
江戸川 (Edogawa),2017-10-30,21:01～22:00,0.0521,0.0457,0.0490,
江戸川 (Edogawa),2017-10-30,20:01～21:00,0.0512,0.0452,0.0484,
江戸川 (Edogawa),2017-10-30,19:01～20:00,0.0516,0.0458,0.0489,
江戸川 (Edogawa),2017-10-30,18:01～19:00,0.0521,0.0455,0.0488,
江戸川 (Edogawa),2017-10-30,17:01～18:00,0.0521,0.0466,0.0489,
江戸川 (Edogawa),2017-10-30,16:01～17:00,0.0517,0.0457,0.0488,
江戸川 (Edogawa),2017-10-30,15:01～16:00,0.0523,0.0463,0.0489,
江戸川 (Edogawa),2017-10-30,14:01～15:00,0.0523,0.0465,0.0492,
江戸川 (Edogawa),2017-10-30,13:01～14:00,0.0525,0.0469,0.0495,
江戸川 (Edogawa),2017-10-30,12:01～13:00,0.0523,0.0470,0.0494,
江戸川 (Edogawa),2017-10-30,11:01～12:00,0.0530,0.0464,0.0494,
江戸川 (Edogawa),2017-10-30,10:01～11:00,0.0530,0.0469,0.0497,
江戸川 (Edogawa),2017-10-30,09:01～10:00,0.0530,0.0470,0.0501,
江戸川 (Edogawa),2017-10-30,08:01～09:00,0.0527,0.0465,0.0500,
江戸川 (Edogawa),2017-10-30,07:01～08:00,0.0517,0.0460,0.0495,
江戸川 (Edogawa),2017-10-30,06:01～07:00,0.0520,0.0460,0.0492,
江戸川 (Edogawa),2017-10-30,05:01～06:00,0.0511,0.0453,0.0486,
江戸川 (Edogawa),2017-10-30,04:01～05:00,0.0515,0.0445,0.0487,
江戸川 (Edogawa),2017-10-30,03:01～04:00,0.0517,0.0444,0.0484,
江戸川 (Edogawa),2017-10-30,02:01～03:00,0.0520,0.0449,0.0481,
江戸川 (Edogawa),2017-10-30,01:01～02:00,0.0505,0.0448,0.0481,
江戸川 (Edogawa),2017-10-30,00:01～01:00,0.0512,0.0446,0.0479,
